Location: Aragoneses
(41.0275°N, 4.3847°W)
Time: 06:50:52
(UTC+00:00)

Meteor 1-20 Rocket - Visible Passes

Search period start: 11 March 2026 00:00
Search period end: 21 March 2026 00:00
Orbit: 818 x 890 km, 81.2° (Epoch: 10 March)

Date Brightness Start Highest point End Pass type
(mag) Time Alt. Az. Time Alt. Az. Time Alt. Az.
11 Mar 7.2 04:34:02 10° NNE 04:37:28 16° ENE 04:40:51 10° ESE visible
11 Mar 5.1 19:24:28 10° SSW 19:30:10 56° WNW 19:35:55 10° N visible
12 Mar 7.2 04:23:13 10° NNE 04:26:23 15° ENE 04:29:32 10° E visible
12 Mar 4.2 06:04:22 10° NNW 06:10:04 74° W 06:15:36 10° S visible
12 Mar 5.0 19:13:24 10° SSW 19:19:09 59° WNW 19:24:55 10° N visible
13 Mar 7.3 04:12:24 10° NNE 04:15:19 14° ENE 04:18:11 10° E visible
13 Mar 4.2 05:53:21 10° NNW 05:59:02 79° W 06:04:36 10° S visible
13 Mar 4.9 19:02:21 10° SSW 19:08:06 63° WNW 19:13:55 10° N visible
14 Mar 7.3 04:01:39 10° NE 04:04:14 13° ENE 04:06:47 10° E visible
14 Mar 4.2 05:42:19 10° N 05:48:02 84° W 05:53:35 10° S visible
14 Mar 4.8 18:51:18 10° SSW 18:57:06 67° WNW 19:02:54 10° N visible
15 Mar 7.4 03:50:55 10° NE 03:53:08 12° ENE 03:55:20 10° E visible
15 Mar 4.2 05:31:18 10° N 05:37:00 89° W 05:42:33 10° S visible
16 Mar 7.4 03:40:18 10° NE 03:42:03 11° ENE 03:43:47 10° E visible
16 Mar 4.3 05:20:17 10° N 05:25:58 86° E 05:31:31 10° S visible
16 Mar 7.7 20:17:56 10° WNW 20:19:02 10° WNW 20:20:09 10° NW visible
17 Mar 7.4 03:29:53 10° NE 03:30:58 10° ENE 03:32:02 10° ENE visible
17 Mar 4.3 05:09:16 10° N 05:14:57 81° E 05:20:28 10° SSE visible
17 Mar 7.6 20:06:12 10° W 20:07:57 11° WNW 20:09:43 10° NW visible
18 Mar 4.4 04:58:16 10° N 05:03:55 76° E 05:09:25 10° SSE visible
18 Mar 7.5 19:54:40 10° W 19:56:53 12° WNW 19:59:05 10° NW visible
19 Mar 4.5 04:47:15 10° N 04:52:53 71° E 04:58:22 10° SSE visible
19 Mar 7.4 19:43:14 10° W 19:45:48 13° WNW 19:48:22 10° NW visible
20 Mar 4.5 04:36:14 10° N 04:41:50 66° ENE 04:47:19 10° SSE visible
20 Mar 7.4 19:31:51 10° W 19:34:43 14° WNW 19:37:35 10° NNW visible
